Weather in Ostrov Gukera

Russia     80°16′13″N   53°02′52″E
temp.,
°C
wind,
m/s
gust,
m/s
humid.,
%
clouds,
%
prec.,
mm/h
press.,
hPa
HPBL,
m
8 march, mon
mon800:00−26n129453 0.0 102820
03:00−24n339876 0.0 102726
06:00−21n4499100 0.0 102659
09:00−20n4799100 0.1 1025134
12:00−24n459995 0.0 102538
15:00−23nnw5610097 0.1 102472
18:00−22nnw69100100 0.1 1021202
21:00−22n68100100 0.1 1019192
9 march, tue
tue900:00−23n6899100 0.1 1018151
03:00−24nnw57100100 0.1 101798
06:00−25nnw68100100 0.1 1015133
09:00−24n68100100 0.1 1014172
12:00−25n46100100 0.1 1014141
15:00−26n45100100 0.1 101384
18:00−26nnw56100100 0.1 1012102
21:00−26nnw56100100 0.1 1011107
10 march, wed
wed1000:00−25nnw56100100 0.0 1009112
03:00−25nw56100100 0.1 100777
06:00−25nw44100100 0.0 100550
09:00−25nw4499100 0.1 100446
12:00−22wnw349999 0.0 100241
15:00−20w459771 0.0 100041
18:00−19w589749 0.0 997149
21:00−17wnw699775 0.2 994158
11 march, thu
thu1100:00−19wnw559983 0.1 99357
03:00−23nw349964 0.1 99125
06:00−23nnw4410093 0.1 98942
09:00−24nnw5710096 0.1 989129
12:00−22nnw5798100 0.1 990155
15:00−22nnw5797100 0.1 990248
18:00−24nnw4599100 0.1 99069
21:00−24nnw4599100 0.1 99169
12 march, fri
fri1200:00−25nnw34100100 0.1 99141
03:00−25nnw45100100 0.1 99160
06:00−25nnw4499100 0.1 99181
09:00−25n3499100 0.1 991111
12:00−26nne3598100 0.1 991214
15:00−28nne3499100 0.1 99174
18:00−31nne34100100 0.0 99223
21:00−31n34100100 0.1 99358